Previsão horária em Juuma

Hoje, 22 Junho, Terça-feira

Tempo Temperatura Precipitação Vento Pressão Humidade
00:00 +16°C° 0 mm 3 m/s 735 mmHg 92%
01:00 +14°C° 0 mm 3 m/s 735 mmHg 92%
02:00 +14°C° 0 mm 3 m/s 736 mmHg 94%
03:00 +14°C° 0 mm 3 m/s 736 mmHg 93%
04:00 +14°C° 0 mm 3 m/s 736 mmHg 93%
05:00 +14°C° 0 mm 3 m/s 737 mmHg 92%
06:00 +16°C° 0 mm 3 m/s 737 mmHg 89%
07:00 +16°C° 0 mm 3 m/s 737 mmHg 85%
08:00 +17°C° 0 mm 3 m/s 737 mmHg 82%
09:00 +19°C° 0 mm 3 m/s 737 mmHg 73%
10:00 +21°C° 0 mm 3 m/s 738 mmHg 64%
11:00 +24°C° 0 mm 3 m/s 738 mmHg 56%
12:00 +25°C° 0 mm 3 m/s 738 mmHg 53%
13:00 +26°C° 0 mm 3 m/s 737 mmHg 49%
14:00 +27°C° 0 mm 4 m/s 737 mmHg 46%
15:00 +27°C° 0.2 mm 4 m/s 737 mmHg 49%
16:00 +27°C° 0.2 mm 4 m/s 737 mmHg 52%
17:00 +27°C° 0.2 mm 4 m/s 736 mmHg 56%
18:00 +23°C° 0.8 mm 4 m/s 737 mmHg 67%
19:00 +21°C° 0.8 mm 3 m/s 737 mmHg 79%
20:00 +18°C° 0.8 mm 3 m/s 737 mmHg 91%
21:00 +18°C° 0 mm 3 m/s 737 mmHg 91%
22:00 +17°C° 0 mm 3 m/s 738 mmHg 92%
23:00 +16°C° 0 mm 3 m/s 738 mmHg 92%

Amanhã, 23 Junho, Quarta-feira

Tempo Temperatura Precipitação Vento Pressão Humidade
00:00 +15°C° 0 mm 2 m/s 738 mmHg 94%
01:00 +14°C° 0 mm 2 m/s 739 mmHg 95%
02:00 +14°C° 0 mm 2 m/s 739 mmHg 96%
03:00 +14°C° 0 mm 2 m/s 739 mmHg 94%
04:00 +13°C° 0 mm 3 m/s 739 mmHg 91%
05:00 +13°C° 0 mm 3 m/s 739 mmHg 89%
06:00 +13°C° 0 mm 4 m/s 740 mmHg 86%
07:00 +14°C° 0 mm 4 m/s 740 mmHg 82%
08:00 +14°C° 0 mm 4 m/s 740 mmHg 79%
09:00 +14°C° 0 mm 4 m/s 740 mmHg 79%
10:00 +14°C° 0 mm 4 m/s 741 mmHg 79%
11:00 +14°C° 0 mm 4 m/s 741 mmHg 79%
12:00 +14°C° 0 mm 4 m/s 741 mmHg 82%
13:00 +13°C° 0 mm 4 m/s 741 mmHg 85%
14:00 +13°C° 0 mm 3 m/s 741 mmHg 88%
15:00 +13°C° 0 mm 3 m/s 741 mmHg 87%
16:00 +13°C° 0 mm 3 m/s 741 mmHg 87%
17:00 +13°C° 0 mm 3 m/s 741 mmHg 87%
18:00 +12°C° 0 mm 3 m/s 741 mmHg 88%
19:00 +12°C° 0 mm 3 m/s 741 mmHg 89%
20:00 +13°C° 0 mm 2 m/s 741 mmHg 89%
21:00 +13°C° 0.1 mm 2 m/s 740 mmHg 91%
22:00 +13°C° 0.1 mm 2 m/s 740 mmHg 93%
23:00 +12°C° 0.1 mm 2 m/s 740 mmHg 95%

Depois de amanhã, 24 Junho, Quinta-feira

Tempo Temperatura Precipitação Vento Pressão Humidade
00:00 +12°C° 0 mm 2 m/s 740 mmHg 96%
01:00 +12°C° 0 mm 2 m/s 740 mmHg 97%
02:00 +12°C° 0 mm 2 m/s 740 mmHg 97%
03:00 +12°C° 0.2 mm 2 m/s 739 mmHg 97%
04:00 +12°C° 0.2 mm 2 m/s 739 mmHg 97%
05:00 +11°C° 0.2 mm 3 m/s 739 mmHg 97%
06:00 +11°C° 1 mm 3 m/s 739 mmHg 97%
07:00 +11°C° 1 mm 3 m/s 739 mmHg 97%
08:00 +10°C° 1 mm 3 m/s 739 mmHg 98%
09:00 +10°C° 0.4 mm 2 m/s 739 mmHg 97%
10:00 +10°C° 0.4 mm 2 m/s 739 mmHg 97%
11:00 +10°C° 0.4 mm 2 m/s 739 mmHg 97%
12:00 +10°C° 0.1 mm 2 m/s 740 mmHg 96%
13:00 +11°C° 0.1 mm 1 m/s 740 mmHg 95%
14:00 +11°C° 0.1 mm 1 m/s 740 mmHg 95%
15:00 +11°C° 0 mm 1 m/s 740 mmHg 94%
16:00 +11°C° 0 mm 1 m/s 740 mmHg 94%
17:00 +11°C° 0 mm 0 m/s 741 mmHg 94%
18:00 +11°C° 0 mm 0 m/s 741 mmHg 94%
19:00 +11°C° 0 mm 0 m/s 741 mmHg 94%
20:00 +11°C° 0 mm 0 m/s 741 mmHg 94%
21:00 +10°C° 0 mm 0 m/s 741 mmHg 95%
22:00 +10°C° 0 mm 0 m/s 741 mmHg 96%
23:00 +10°C° 0 mm 0 m/s 741 mmHg 96%

25 Junho, Sexta-feira

Tempo Temperatura Precipitação Vento Pressão Humidade
00:00 +10°C° 0 mm 0 m/s 741 mmHg 96%
01:00 +9°C° 0 mm 0 m/s 741 mmHg 96%
02:00 +9°C° 0 mm 0 m/s 741 mmHg 96%
03:00 +10°C° 0 mm 0 m/s 741 mmHg 94%
04:00 +11°C° 0 mm 0 m/s 741 mmHg 92%
05:00 +12°C° 0 mm 1 m/s 741 mmHg 91%
06:00 +14°C° 0 mm 1 m/s 741 mmHg 85%
07:00 +15°C° 0 mm 1 m/s 741 mmHg 79%
08:00 +16°C° 0 mm 1 m/s 741 mmHg 74%
09:00 +17°C° 0 mm 2 m/s 741 mmHg 67%
10:00 +19°C° 0 mm 2 m/s 741 mmHg 59%
11:00 +20°C° 0 mm 2 m/s 741 mmHg 52%
12:00 +20°C° 0 mm 2 m/s 741 mmHg 53%
13:00 +21°C° 0 mm 2 m/s 740 mmHg 53%
14:00 +21°C° 0 mm 2 m/s 740 mmHg 53%
15:00 +21°C° 0 mm 2 m/s 740 mmHg 56%
16:00 +20°C° 0 mm 2 m/s 740 mmHg 58%
17:00 +20°C° 0 mm 2 m/s 740 mmHg 61%
18:00 +20°C° 0.1 mm 2 m/s 740 mmHg 63%
19:00 +19°C° 0.1 mm 2 m/s 740 mmHg 66%
20:00 +18°C° 0.1 mm 2 m/s 740 mmHg 69%
21:00 +17°C° 0 mm 2 m/s 740 mmHg 76%
22:00 +16°C° 0 mm 2 m/s 740 mmHg 82%
23:00 +14°C° 0 mm 2 m/s 740 mmHg 89%

26 Junho, Sábado

Tempo Temperatura Precipitação Vento Pressão Humidade
00:00 +14°C° 0 mm 2 m/s 741 mmHg 91%
01:00 +13°C° 0 mm 2 m/s 741 mmHg 92%
02:00 +12°C° 0 mm 2 m/s 741 mmHg 94%
03:00 +12°C° 0 mm 2 m/s 742 mmHg 92%
04:00 +12°C° 0 mm 2 m/s 742 mmHg 90%
05:00 +11°C° 0 mm 3 m/s 742 mmHg 88%
06:00 +12°C° 0 mm 3 m/s 742 mmHg 82%
07:00 +13°C° 0 mm 3 m/s 743 mmHg 76%
08:00 +14°C° 0 mm 3 m/s 743 mmHg 71%
09:00 +16°C° 0 mm 2 m/s 743 mmHg 66%
10:00 +16°C° 0 mm 2 m/s 743 mmHg 61%
11:00 +17°C° 0 mm 2 m/s 743 mmHg 56%
12:00 +17°C° 0 mm 2 m/s 743 mmHg 55%
13:00 +18°C° 0 mm 3 m/s 743 mmHg 55%
14:00 +18°C° 0 mm 3 m/s 743 mmHg 54%
15:00 +18°C° 0 mm 3 m/s 743 mmHg 54%
16:00 +18°C° 0 mm 3 m/s 743 mmHg 54%
17:00 +18°C° 0 mm 2 m/s 743 mmHg 54%
18:00 +17°C° 0 mm 2 m/s 744 mmHg 58%
19:00 +16°C° 0 mm 2 m/s 744 mmHg 62%
20:00 +14°C° 0 mm 3 m/s 744 mmHg 66%
21:00 +14°C° 0 mm 2 m/s 744 mmHg 72%
22:00 +12°C° 0 mm 2 m/s 744 mmHg 77%
23:00 +11°C° 0 mm 1 m/s 744 mmHg 83%

27 Junho, Domingo

Tempo Temperatura Precipitação Vento Pressão Humidade
00:00 +10°C° 0 mm 1 m/s 745 mmHg 84%
01:00 +10°C° 0 mm 1 m/s 745 mmHg 86%
02:00 +10°C° 0 mm 1 m/s 745 mmHg 88%
03:00 +11°C° 0 mm 1 m/s 745 mmHg 82%
04:00 +12°C° 0 mm 1 m/s 746 mmHg 77%
05:00 +13°C° 0 mm 2 m/s 746 mmHg 72%
06:00 +14°C° 0 mm 2 m/s 746 mmHg 65%
07:00 +16°C° 0 mm 2 m/s 746 mmHg 58%
08:00 +17°C° 0 mm 2 m/s 746 mmHg 50%
09:00 +18°C° 0 mm 2 m/s 746 mmHg 46%
10:00 +19°C° 0 mm 2 m/s 746 mmHg 42%
11:00 +21°C° 0 mm 3 m/s 746 mmHg 38%
12:00 +21°C° 0 mm 3 m/s 745 mmHg 37%
13:00 +22°C° 0 mm 3 m/s 745 mmHg 36%
14:00 +22°C° 0 mm 3 m/s 745 mmHg 35%
15:00 +22°C° 0 mm 3 m/s 745 mmHg 35%
16:00 +22°C° 0 mm 3 m/s 745 mmHg 35%
17:00 +22°C° 0 mm 3 m/s 745 mmHg 36%
18:00 +21°C° 0 mm 3 m/s 745 mmHg 41%
19:00 +20°C° 0 mm 3 m/s 744 mmHg 46%
20:00 +19°C° 0 mm 3 m/s 744 mmHg 51%
21:00 +17°C° 0 mm 3 m/s 744 mmHg 57%
22:00 +14°C° 0 mm 3 m/s 745 mmHg 63%
23:00 +13°C° 0 mm 3 m/s 745 mmHg 69%
Mostrar mais

Necessitamos do seu Consentimento

A Meteoprog e os seus Fornecedores de Serviços podem armazenar e aceder a dados pessoais como cookies, identificadores do dispositivo ou outras tecnologias semelhantes existentes no seu dispositivo e processar estes dados para personalizar conteúdos e anúncios, assim como funcionalidades nas redes sociais e análise de tráfego.

  • Armazenar e/ou aceder a informações no seu dispositivo

    Os cookies, identificadores do dispositivo ou outras informações podem ser armazenados ou acedidos no seu dispositivo, para os fins acima indicados.

  • Anúncios e conteúdos personalizados, medição de anúncios e conteúdos, dados sobre o público-alvo e desenvolvimento de produtos

    Os anúncios e os conteúdos podem ser personalizados com base num perfil. Podem ser adicionados dados adicionais para uma maior personalização dos anúncios e dos conteúdos. A eficácia dos anúncios e dos conteúdos pode ser medida. Podem ser obtidas informações sobre o público que visualizou os anúncios e os conteúdos. Estes dados podem ser usados para desenvolver ou melhorar sistemas, softwares ou a experiência do utilizador.

Ao clicar em "Eu concordo”, permitirá o uso de cookies, identificadores do dispositivo e web beacons mencionados ou outras tecnologias semelhantes. As configurações do navegador do seu dispositivo podem ser alteradas.

Para certos fins, podem ser invocados interesses legítimos ao invés de consentimento. Pode ler mais informação sobre este assunto na nossa Política de Privacidade e Cookies.